Time,TemperatureF,DewpointF,PressureIn,WindDirection,WindDirectionDegrees,WindSpeedMPH,WindSpeedGustMPH,Humidity,HourlyPrecipIn,Conditions,Clouds,dailyrainin,SoftwareType,DateUTC
2013-06-15 00:00:00,60.4,40.0,30.08,SSE,156,0.0,-999.0,48,-99.99,,,0.00,weatherlink.com 1.10,2013-06-15 04:00:00,
2013-06-15 00:15:00,59.7,36.0,30.08,SSE,156,0.0,-999.0,41,-99.99,,,0.00,weatherlink.com 1.10,2013-06-15 04:15:00,
2013-06-15 00:30:00,59.3,30.0,30.08,SSE,156,0.0,-999.0,33,-99.99,,,0.00,weatherlink.com 1.10,2013-06-15 04:30:00,
2013-06-15 00:45:00,59.0,30.0,30.08,SSE,156,0.0,-999.0,34,-99.99,,,0.00,weatherlink.com 1.10,2013-06-15 04:45:00,
2013-06-15 01:00:00,58.6,29.0,30.09,SSE,156,0.0,-999.0,32,-99.99,,,0.00,weatherlink.com 1.10,2013-06-15 05:00:00,
2013-06-15 01:15:00,58.0,25.0,30.10,SSE,156,0.0,-999.0,28,-99.99,,,0.00,weatherlink.com 1.10,2013-06-15 05:15:00,
2013-06-15 01:30:00,57.9,17.0,30.11,SSE,156,0.0,-999.0,20,-99.99,,,0.00,weatherlink.com 1.10,2013-06-15 05:30:00,
2013-06-15 01:45:00,57.7,15.0,30.10,SSE,156,0.0,-999.0,19,-99.99,,,0.00,weatherlink.com 1.10,2013-06-15 05:45:00,
2013-06-15 02:00:00,57.5,14.0,30.10,SSE,156,0.0,-999.0,18,-99.99,,,0.00,weatherlink.com 1.10,2013-06-15 06:00:00,
2013-06-15 02:15:00,57.3,11.0,30.11,SSE,156,0.0,-999.0,16,-99.99,,,0.00,weatherlink.com 1.10,2013-06-15 06:15:00,
2013-06-15 02:30:00,56.9,9.0,30.11,SSE,156,0.0,-999.0,15,-99.99,,,0.00,weatherlink.com 1.10,2013-06-15 06:30:00,
2013-06-15 02:45:00,56.7,6.0,30.10,SSE,156,0.0,-999.0,13,-99.99,,,0.00,weatherlink.com 1.10,2013-06-15 06:45:00,
2013-06-15 03:00:00,56.5,4.0,30.11,SSE,156,0.0,-999.0,12,-99.99,,,0.00,weatherlink.com 1.10,2013-06-15 07:00:00,
2013-06-15 03:15:00,56.2,4.0,30.10,SSE,156,0.0,-999.0,12,-99.99,,,0.00,weatherlink.com 1.10,2013-06-15 07:15:00,
2013-06-15 03:30:00,56.4,2.0,30.09,SSE,156,0.0,-999.0,11,-99.99,,,0.00,weatherlink.com 1.10,2013-06-15 07:30:00,
2013-06-15 03:45:00,56.2,-5.0,30.09,SSE,156,0.0,-999.0,8,-99.99,,,0.00,weatherlink.com 1.10,2013-06-15 07:45:00,
2013-06-15 04:00:00,56.1,0.0,30.10,SSE,156,0.0,-999.0,10,-99.99,,,0.00,weatherlink.com 1.10,2013-06-15 08:00:00,
2013-06-15 04:15:00,55.9,2.0,30.09,SSE,156,0.0,-999.0,11,-99.99,,,0.00,weatherlink.com 1.10,2013-06-15 08:15:00,
2013-06-15 04:30:00,56.1,-11.0,30.09,SSE,156,0.0,-999.0,6,-99.99,,,0.00,weatherlink.com 1.10,2013-06-15 08:30:00,
2013-06-15 04:45:00,55.9,0.0,30.10,SSE,156,0.0,-999.0,10,-99.99,,,0.00,weatherlink.com 1.10,2013-06-15 08:45:00,
2013-06-15 05:00:00,55.7,-3.0,30.12,SSE,156,0.0,-999.0,9,-99.99,,,0.00,weatherlink.com 1.10,2013-06-15 09:00:00,
2013-06-15 05:15:00,55.5,-3.0,30.12,SSE,156,0.0,-999.0,9,-99.99,,,0.00,weatherlink.com 1.10,2013-06-15 09:15:00,
2013-06-15 05:30:00,55.4,-5.0,30.13,SSE,156,0.0,-999.0,8,-99.99,,,0.00,weatherlink.com 1.10,2013-06-15 09:30:00,
2013-06-15 05:45:00,55.2,-3.0,30.14,SSE,156,0.0,-999.0,9,-99.99,,,0.00,weatherlink.com 1.10,2013-06-15 09:45:00,
2013-06-15 06:00:00,55.0,-3.0,30.16,ESE,110,0.0,-999.0,9,-99.99,,,0.00,weatherlink.com 1.10,2013-06-15 10:00:00,
2013-06-15 06:15:00,54.9,-9.0,30.15,ESE,110,0.0,-999.0,7,-99.99,,,0.00,weatherlink.com 1.10,2013-06-15 10:15:00,
2013-06-15 06:30:00,54.9,-9.0,30.15,ESE,110,0.0,-999.0,7,-99.99,,,0.00,weatherlink.com 1.10,2013-06-15 10:30:00,
2013-06-15 06:45:00,54.6,-9.0,30.16,ESE,110,0.0,-999.0,7,-99.99,,,0.00,weatherlink.com 1.10,2013-06-15 10:45:00,
2013-06-15 07:00:00,54.7,-12.0,30.16,ESE,110,0.0,-999.0,6,-99.99,,,0.00,weatherlink.com 1.10,2013-06-15 11:00:00,
2013-06-15 07:15:00,54.7,-20.0,30.16,ESE,110,0.0,-999.0,4,-99.99,,,0.00,weatherlink.com 1.10,2013-06-15 11:15:00,
2013-06-15 07:30:00,55.0,-25.0,30.16,ESE,110,0.0,-999.0,3,-99.99,,,0.00,weatherlink.com 1.10,2013-06-15 11:30:00,
2013-06-15 07:45:00,55.6,-32.0,30.17,North,5,0.0,-999.0,2,-99.99,,,0.00,weatherlink.com 1.10,2013-06-15 11:45:00,
2013-06-15 08:00:00,56.2,-99.9,30.18,North,5,0.0,-999.0,0,-99.99,,,0.00,weatherlink.com 1.10,2013-06-15 12:00:00,
2013-06-15 08:15:00,56.8,-99.9,30.18,North,5,0.0,-999.0,0,-99.99,,,0.00,weatherlink.com 1.10,2013-06-15 12:15:00,
2013-06-15 08:30:00,57.8,-99.9,30.18,North,5,0.0,-999.0,0,-99.99,,,0.00,weatherlink.com 1.10,2013-06-15 12:30:00,
2013-06-15 08:45:00,58.8,-99.9,30.18,North,5,0.0,-999.0,0,-99.99,,,0.00,weatherlink.com 1.10,2013-06-15 12:45:00,
2013-06-15 09:00:00,60.1,-22.0,30.19,North,5,0.0,-999.0,3,-99.99,,,0.00,weatherlink.com 1.10,2013-06-15 13:00:00,
2013-06-15 09:15:00,61.5,27.0,30.18,North,5,0.0,-999.0,27,-99.99,,,0.00,weatherlink.com 1.10,2013-06-15 13:15:00,
2013-06-15 09:30:00,62.8,47.0,30.19,NW,326,0.0,-999.0,56,-99.99,,,0.00,weatherlink.com 1.10,2013-06-15 13:30:00,
2013-06-15 09:45:00,64.2,53.0,30.18,North,355,0.0,-999.0,66,-99.99,,,0.00,weatherlink.com 1.10,2013-06-15 13:45:00,
2013-06-15 10:00:00,65.5,56.0,30.18,North,355,0.0,-999.0,72,-99.99,,,0.00,weatherlink.com 1.10,2013-06-15 14:00:00,
2013-06-15 10:15:00,67.1,58.0,30.18,NNW,347,0.0,-999.0,73,-99.99,,,0.00,weatherlink.com 1.10,2013-06-15 14:15:00,
2013-06-15 10:30:00,69.0,60.0,30.17,NNW,347,0.0,-999.0,72,-99.99,,,0.00,weatherlink.com 1.10,2013-06-15 14:30:00,
2013-06-15 10:45:00,70.9,61.0,30.17,NE,51,0.0,-999.0,71,-99.99,,,0.00,weatherlink.com 1.10,2013-06-15 14:45:00,
2013-06-15 11:00:00,72.5,61.0,30.16,NE,34,0.0,-999.0,68,-99.99,,,0.00,weatherlink.com 1.10,2013-06-15 15:00:00,
2013-06-15 11:15:00,74.0,62.0,30.16,NNE,17,0.0,-999.0,66,-99.99,,,0.00,weatherlink.com 1.10,2013-06-15 15:15:00,
2013-06-15 11:30:00,75.5,62.0,30.16,NE,52,0.0,-999.0,63,-99.99,,,0.00,weatherlink.com 1.10,2013-06-15 15:30:00,
2013-06-15 11:45:00,75.5,61.0,30.16,WNW,294,0.0,-999.0,60,-99.99,,,0.00,weatherlink.com 1.10,2013-06-15 15:45:00,
2013-06-15 12:00:00,76.0,63.0,30.15,NW,311,0.0,-999.0,64,-99.99,,,0.00,weatherlink.com 1.10,2013-06-15 16:00:00,
2013-06-15 12:15:00,76.5,65.0,30.15,NNE,28,0.0,-999.0,67,-99.99,,,0.00,weatherlink.com 1.10,2013-06-15 16:15:00,
2013-06-15 12:30:00,77.7,63.0,30.14,East,91,0.0,-999.0,61,-99.99,,,0.00,weatherlink.com 1.10,2013-06-15 16:30:00,
2013-06-15 12:45:00,78.4,67.0,30.14,East,92,0.0,-999.0,67,-99.99,,,0.00,weatherlink.com 1.10,2013-06-15 16:45:00,
2013-06-15 13:00:00,79.1,66.0,30.14,NNE,24,0.0,-999.0,65,-99.99,,,0.00,weatherlink.com 1.10,2013-06-15 17:00:00,
2013-06-15 13:15:00,78.2,65.0,30.14,SSE,150,0.0,-999.0,64,-99.99,,,0.00,weatherlink.com 1.10,2013-06-15 17:15:00,
2013-06-15 13:30:00,77.5,67.0,30.14,North,355,0.0,-999.0,69,-99.99,,,0.00,weatherlink.com 1.10,2013-06-15 17:30:00,
2013-06-15 13:45:00,78.7,65.0,30.13,East,101,0.0,-999.0,63,-99.99,,,0.00,weatherlink.com 1.10,2013-06-15 17:45:00,
2013-06-15 14:00:00,79.1,64.0,30.12,ENE,76,0.0,-999.0,60,-99.99,,,0.00,weatherlink.com 1.10,2013-06-15 18:00:00,
2013-06-15 14:15:00,79.5,64.0,30.12,North,355,0.0,-999.0,60,-99.99,,,0.00,weatherlink.com 1.10,2013-06-15 18:15:00,
2013-06-15 14:30:00,79.2,65.0,30.12,NW,315,0.0,-999.0,62,-99.99,,,0.00,weatherlink.com 1.10,2013-06-15 18:30:00,
2013-06-15 14:45:00,79.3,65.0,30.11,NNE,22,0.0,-999.0,62,-99.99,,,0.00,weatherlink.com 1.10,2013-06-15 18:45:00,
2013-06-15 15:00:00,78.5,67.0,30.11,NE,44,0.0,-999.0,68,-99.99,,,0.00,weatherlink.com 1.10,2013-06-15 19:00:00,
2013-06-15 15:15:00,78.7,65.0,30.11,West,275,0.0,-999.0,64,-99.99,,,0.00,weatherlink.com 1.10,2013-06-15 19:15:00,
2013-06-15 15:30:00,77.4,66.0,30.11,WNW,291,2.0,-999.0,68,-99.99,,,0.00,weatherlink.com 1.10,2013-06-15 19:30:00,
2013-06-15 15:45:00,78.4,67.0,30.11,South,172,0.0,-999.0,67,-99.99,,,0.00,weatherlink.com 1.10,2013-06-15 19:45:00,
2013-06-15 16:00:00,78.9,66.0,30.11,ESE,109,0.0,-999.0,64,-99.99,,,0.00,weatherlink.com 1.10,2013-06-15 20:00:00,
2013-06-15 16:15:00,78.8,66.0,30.10,East,91,0.0,-999.0,65,-99.99,,,0.00,weatherlink.com 1.10,2013-06-15 20:15:00,
2013-06-15 16:30:00,78.5,66.0,30.10,ENE,67,0.0,-999.0,65,-99.99,,,0.00,weatherlink.com 1.10,2013-06-15 20:30:00,
2013-06-15 16:45:00,77.5,66.0,30.10,South,170,0.0,-999.0,68,-99.99,,,0.00,weatherlink.com 1.10,2013-06-15 20:45:00,
2013-06-15 17:00:00,76.9,66.0,30.09,North,355,0.0,-999.0,68,-99.99,,,0.00,weatherlink.com 1.10,2013-06-15 21:00:00,
2013-06-15 17:15:00,76.0,66.0,30.09,North,350,0.0,-999.0,71,-99.99,,,0.00,weatherlink.com 1.10,2013-06-15 21:15:00,
2013-06-15 17:30:00,75.3,65.0,30.09,ENE,59,0.0,-999.0,71,-99.99,,,0.00,weatherlink.com 1.10,2013-06-15 21:30:00,
2013-06-15 17:45:00,75.4,65.0,30.09,East,101,0.0,-999.0,71,-99.99,,,0.00,weatherlink.com 1.10,2013-06-15 21:45:00,
2013-06-15 18:00:00,75.6,65.0,30.08,ENE,72,0.0,-999.0,70,-99.99,,,0.00,weatherlink.com 1.10,2013-06-15 22:00:00,
2013-06-15 18:15:00,74.9,65.0,30.08,ENE,58,0.0,-999.0,71,-99.99,,,0.00,weatherlink.com 1.10,2013-06-15 22:15:00,
2013-06-15 18:30:00,74.3,65.0,30.08,North,355,0.0,-999.0,72,-99.99,,,0.00,weatherlink.com 1.10,2013-06-15 22:30:00,
2013-06-15 18:45:00,73.9,64.0,30.08,NNW,336,0.0,-999.0,72,-99.99,,,0.00,weatherlink.com 1.10,2013-06-15 22:45:00,
2013-06-15 19:00:00,73.0,63.0,30.08,SE,145,0.0,-999.0,72,-99.99,,,0.00,weatherlink.com 1.10,2013-06-15 23:00:00,
2013-06-15 19:15:00,72.1,63.0,30.09,South,174,0.0,-999.0,72,-99.99,,,0.00,weatherlink.com 1.10,2013-06-15 23:15:00,
2013-06-15 19:30:00,71.5,62.0,30.10,SE,132,1.0,-999.0,72,-99.99,,,0.00,weatherlink.com 1.10,2013-06-15 23:30:00,
2013-06-15 19:45:00,71.2,61.0,30.10,ENE,69,0.0,-999.0,71,-99.99,,,0.00,weatherlink.com 1.10,2013-06-15 23:45:00,
2013-06-15 20:00:00,71.1,61.0,30.09,ENE,69,0.0,-999.0,71,-99.99,,,0.00,weatherlink.com 1.10,2013-06-16 00:00:00,
2013-06-15 20:15:00,70.6,61.0,30.11,NNW,348,0.0,-999.0,72,-99.99,,,0.00,weatherlink.com 1.10,2013-06-16 00:15:00,
2013-06-15 20:30:00,70.1,61.0,30.10,NNW,348,0.0,-999.0,72,-99.99,,,0.00,weatherlink.com 1.10,2013-06-16 00:30:00,
2013-06-15 20:45:00,69.5,60.0,30.09,NNW,348,0.0,-999.0,71,-99.99,,,0.00,weatherlink.com 1.10,2013-06-16 00:45:00,
2013-06-15 21:00:00,68.8,58.0,30.10,North,350,0.0,-999.0,69,-99.99,,,0.00,weatherlink.com 1.10,2013-06-16 01:00:00,
2013-06-15 21:15:00,68.1,57.0,30.10,North,350,0.0,-999.0,68,-99.99,,,0.00,weatherlink.com 1.10,2013-06-16 01:15:00,
2013-06-15 21:30:00,67.7,57.0,30.10,NNE,17,0.0,-999.0,69,-99.99,,,0.00,weatherlink.com 1.10,2013-06-16 01:30:00,
2013-06-15 21:45:00,67.3,57.0,30.10,NNE,17,0.0,-999.0,69,-99.99,,,0.00,weatherlink.com 1.10,2013-06-16 01:45:00,
2013-06-15 22:00:00,66.9,57.0,30.11,NNE,17,0.0,-999.0,71,-99.99,,,0.00,weatherlink.com 1.10,2013-06-16 02:00:00,
2013-06-15 22:15:00,66.7,56.0,30.12,NNE,17,0.0,-999.0,69,-99.99,,,0.00,weatherlink.com 1.10,2013-06-16 02:15:00,
2013-06-15 22:30:00,66.4,55.0,30.13,NNE,17,0.0,-999.0,68,-99.99,,,0.00,weatherlink.com 1.10,2013-06-16 02:30:00,
2013-06-15 22:45:00,66.1,54.0,30.13,NNE,17,0.0,-999.0,65,-99.99,,,0.00,weatherlink.com 1.10,2013-06-16 02:45:00,
2013-06-15 23:00:00,65.7,53.0,30.13,NNE,17,0.0,-999.0,63,-99.99,,,0.00,weatherlink.com 1.10,2013-06-16 03:00:00,
2013-06-15 23:15:00,65.5,53.0,30.13,NNE,17,0.0,-999.0,64,-99.99,,,0.00,weatherlink.com 1.10,2013-06-16 03:15:00,
2013-06-15 23:30:00,65.5,53.0,30.14,NNE,17,0.0,-999.0,65,-99.99,,,0.00,weatherlink.com 1.10,2013-06-16 03:30:00,
2013-06-15 23:45:00,65.2,54.0,30.14,NNE,17,0.0,-999.0,67,-99.99,,,0.00,weatherlink.com 1.10,2013-06-16 03:45:00,